星链-32637 (STARLINK-32637)

导读 | 豆包AI

STARLINK-32637是美国太空探索技术公司(SpaceX)于2024年11月21日发射的星链低轨通信卫星,隶属于Starlink全球卫星互联网项目。该卫星运行于近地轨道,为项目组网建设进一步扩充卫星规模,旨在面向全球提供高速低延迟互联网服务,可覆盖偏远区域,同时支持商业航运、航空及军事通信等多场景应用。不过星链大规模部署卫星的行为也带来了太空碎片增多、碰撞风险提升等争议问题。

基本信息
目录编号:
62032
目录名称:
STARLINK-32637
国际标识:
2024-216A
轨道中心:
EARTH
卫星名称:
星链-32637
卫星全名:
星链-32637 (STARLINK-32637)
卫星状态:
在轨 (已飞行479 天)
发射日期:
2024-11-21 UTC
国别 :
美国 (US)
星等 :
--
轨道信息
数据来源 国际轨道数据
星历时间: 2026-03-15T03:29:49+0800
14小时前
查看轨道信息
半长轴: 6861.058km
偏心率: 0.0002439
轨道倾角: 43.006°
近地点辐角 278.146°
升交点赤经 227.008°
平近点角 81.911°
近地点: 481.247km
远地点: 484.595km
周期: 94.264分钟
每日圈数: 15.276231
详细信息
固有亮度:
5
最大亮度:
2.5
卫星平台:
Starlink V1.0
覆盖范围:
全球
运营商:
太空探索技术公司
运营商所在国:
美国
制造商(研发单位):
太空探索技术公司
制造商所在国:
美国
使用方式:
暂无
卫星简介
Starlink 计划是 SpaceX 推出的全球卫星互联网项目,通过发射低轨道卫星,为全球尤其是偏远地区提供高速、低延迟的互联网服务。自 2019 年起,Starlink 已部署数千颗卫星,旨在缩小全球数字鸿沟,推动互联网普及。该项目还为军事、航空等行业提供通信支持,带来广泛经济效益。
2D轨道图
3D轨道图
轨道高度分析图
轨道倾角分析图
轨道综合分析图
查看轨道综合分析图